Location: Castelbiague
(43.0361°N, 0.9246°E)
Time: 13:31:53
(UTC+00:00)

Lacrosse 5 rocket - Pass Details

Date: 17 June 2021
Orbit: 460 x 634 km, 57.0° (Epoch: 29 July)

Event Time Altitude Azimuth Distance (km) Brightness Sun altitude
Rises 20:40:17 0° 200° (SSW) 2,562 4.5 -9.6°
Reaches altitude 10° 20:42:39 10° 190° (S) 1,659 3.4 -9.9°
Maximum altitude 20:45:54 29° 128° (SE) 889 1.8 -10.3°
Drops below altitude 10° 20:49:05 10° 67° (ENE) 1,620 3.5 -10.7°
Sets 20:51:21 0° 56° (NE) 2,490 4.6 -11.0°
